FW9086 Weather Reports


Display with metric or nautical units.
time (UTC)temp
F
wind
direction
speed
MPH
gust
MPH
rain 1hr
in
rain 24hr
in
rain mn
in
humidity
%
barometer
mb
20260904125311 77 176 0.0 0.0 0.00 0.00 0.00 93 1014.0
20260904124810 77 176 0.0 0.0 0.00 0.00 0.00 93 1014.1
20260904124307 77 174 0.0 0.0 0.00 0.00 0.00 94 1014.1
20260904123801 76 177 0.0 0.0 0.00 0.00 0.00 94 1014.1
20260904123256 76 180 0.0 0.0 0.00 0.00 0.00 95 1014.1
20260904122751 76 177 0.0 0.0 0.00 0.00 0.00 96 1013.7
20260904122251 75 183 0.0 0.0 0.00 0.00 0.00 96 1013.9
20260904121746 75 189 0.0 0.0 0.00 0.00 0.00 96 1014.1
20260904121243 75 169 0.0 0.0 0.00 0.00 0.00 97 1014.0
20260904120739 75 168 0.0 0.0 0.00 0.00 0.00 97 1013.9
20260904120234 75 168 0.0 0.0 0.00 0.00 0.00 97 1013.7
20260904115729 75 170 0.0 0.0 0.00 0.00 0.00 97 1013.5
20260904115224 75 170 0.0 0.0 0.00 0.00 0.00 97 1013.7
20260904114719 75 170 0.0 0.0 0.00 0.00 0.00 96 1013.8
20260904114213 75 170 0.0 0.0 0.00 0.00 0.00 96 1013.6
20260904113708 75 170 0.0 0.0 0.00 0.00 0.00 96 1013.6
20260904113207 75 170 0.0 0.0 0.00 0.00 0.00 95 1013.4
20260904112703 75 170 0.0 0.0 0.00 0.00 0.00 95 1013.2
20260904112158 75 170 0.0 0.0 0.00 0.00 0.00 95 1013.1
20260904111654 75 170 0.0 0.0 0.00 0.00 0.00 95 1013.1
20260904111149 76 171 0.0 0.0 0.00 0.00 0.00 94 1012.9
20260904110644 76 178 0.0 0.0 0.00 0.00 0.00 94 1013.0
20260904110143 76 214 0.0 0.0 0.00 0.00 0.00 94 1012.9
20260904105638 76 190 0.0 0.0 0.00 0.00 0.00 94 1012.6
20260904105133 76 189 0.0 0.0 0.00 0.00 0.00 94 1012.9
20260904104628 76 207 0.0 0.0 0.00 0.00 0.00 94 1012.8
20260904104124 76 197 0.0 0.0 0.00 0.00 0.00 94 1012.5
20260904103620 76 175 0.0 0.0 0.00 0.00 0.00 94 1013.0
20260904103116 76 192 0.0 0.0 0.00 0.00 0.00 95 1012.9
20260904102612 75 189 0.0 0.0 0.00 0.00 0.00 96 1013.0
20260904102106 75 192 0.0 0.0 0.00 0.00 0.00 97 1012.9
20260904101603 75 175 0.0 0.0 0.00 0.00 0.00 97 1012.9
20260904101058 75 184 0.0 0.0 0.00 0.00 0.00 98 1012.8
20260904100554 75 177 0.0 0.0 0.00 0.00 0.00 99 1013.0
20260904100049 75 177 0.0 0.0 0.00 0.00 0.00 99 1013.0
20260904095544 75 166 0.0 0.0 0.00 0.00 0.00 99 1012.8
20260904095039 75 163 0.0 0.0 0.00 0.00 0.00 99 1013.0
20260904094533 75 163 0.0 0.0 0.00 0.00 0.00 99 1012.9
20260904094029 75 163 0.0 0.0 0.00 0.00 0.00 99 1013.0
20260904093525 75 162 0.0 0.0 0.00 0.00 0.00 99 1012.9
20260904093020 75 162 0.0 0.0 0.00 0.00 0.00 99 1012.8
20260904092516 75 162 0.0 0.0 0.00 0.00 0.00 99 1012.9
20260904092012 75 162 0.0 0.0 0.00 0.00 0.00 99 1012.8
20260904091508 75 162 0.0 0.0 0.00 0.00 0.00 99 1012.9
20260904091008 75 164 0.0 0.0 0.00 0.00 0.00 98 1012.9
20260904090503 75 164 0.0 0.0 0.00 0.00 0.00 98 1012.6
20260904090004 75 165 0.0 0.0 0.00 0.00 0.00 98 1012.6
20260904085459 75 166 0.0 0.0 0.00 0.00 0.00 98 1012.5
20260904084953 75 163 0.0 0.0 0.00 0.00 0.00 98 1012.5
20260904084449 75 163 0.0 0.0 0.00 0.00 0.00 98 1012.6
20260904083944 75 163 0.0 0.0 0.00 0.00 0.00 98 1012.6
20260904083441 75 165 0.0 0.0 0.00 0.00 0.00 98 1012.9
20260904082936 76 165 0.0 0.0 0.00 0.00 0.00 98 1012.6
20260904082431 76 165 0.0 0.0 0.00 0.00 0.00 98 1012.8
20260904081926 76 165 0.0 0.0 0.00 0.00 0.00 98 1012.8
20260904081421 76 164 0.0 0.0 0.00 0.00 0.00 97 1012.8
20260904080917 76 164 0.0 0.0 0.00 0.00 0.00 97 1012.6
20260904080412 76 163 0.0 0.0 0.00 0.00 0.00 97 1012.6
20260904075908 76 161 0.0 0.0 0.00 0.00 0.00 97 1013.0
20260904075404 76 160 0.0 0.0 0.00 0.00 0.00 97 1012.8
20260904074902 76 163 0.0 0.0 0.00 0.00 0.00 97 1013.0
20260904074358 76 163 0.0 0.0 0.00 0.00 0.00 97 1012.9
20260904073853 76 163 0.0 0.0 0.00 0.00 0.00 97 1013.2
20260904073349 76 162 0.0 0.0 0.00 0.00 0.00 97 1013.2
20260904072844 76 164 0.0 0.0 0.00 0.00 0.00 97 1013.2
20260904072339 76 163 0.0 0.0 0.00 0.00 0.00 97 1013.3
20260904071834 76 163 0.0 0.0 0.00 0.00 0.00 97 1013.1
20260904071329 76 168 0.0 0.0 0.00 0.00 0.00 97 1013.4
20260904070824 76 170 0.0 0.0 0.00 0.00 0.00 97 1013.3
20260904070323 76 170 0.0 0.0 0.00 0.00 0.00 97 1013.1
20260904065818 77 163 0.0 0.0 0.00 0.00 0.00 97 1013.1
20260904065314 77 168 0.0 0.0 0.00 0.00 0.00 97 1013.2
20260904064809 77 168 0.0 0.0 0.00 0.00 0.00 96 1013.2
20260904064304 77 172 0.0 0.0 0.00 0.00 0.00 96 1013.2
20260904063801 77 172 0.0 0.0 0.00 0.00 0.00 96 1013.3
20260904063256 77 172 0.0 0.0 0.00 0.00 0.00 96 1013.6
20260904062752 77 176 0.0 0.0 0.00 0.00 0.00 96 1013.4
20260904062248 77 178 0.0 0.0 0.00 0.00 0.00 96 1013.6
20260904061743 77 165 0.0 0.0 0.00 0.00 0.00 95 1013.4
20260904061239 77 164 0.0 0.0 0.00 0.00 0.00 95 1013.7
20260904060736 77 164 0.0 0.0 0.00 0.00 0.00 95 1013.6
20260904060231 77 165 0.0 0.0 0.00 0.00 0.00 95 1013.6
20260904055726 78 167 0.0 0.0 0.00 0.00 0.00 95 1013.9
20260904055220 78 165 0.0 0.0 0.00 0.00 0.00 95 1013.7
20260904054716 78 163 0.0 0.0 0.00 0.00 0.00 95 1013.8
20260904054212 77 163 0.0 0.0 0.00 0.00 0.00 94 1013.7
20260904053707 77 163 0.0 0.0 0.00 0.00 0.00 94 1013.5
20260904053202 77 163 0.0 0.0 0.00 0.00 0.00 94 1013.6
20260904052658 78 163 0.0 0.0 0.00 0.00 0.00 94 1013.6
20260904052154 78 163 0.0 0.0 0.00 0.00 0.00 94 1013.5
20260904051650 78 163 0.0 0.0 0.00 0.00 0.00 93 1013.7
20260904051145 78 163 0.0 0.0 0.00 0.00 0.00 93 1013.5
20260904050640 78 160 0.0 0.0 0.00 0.00 0.00 93 1013.4
20260904050137 78 168 0.0 0.0 0.00 0.00 0.00 93 1013.4
20260904045636 78 168 0.0 0.0 0.00 0.00 0.00 93 1013.5
20260904045131 78 168 0.0 0.0 0.00 0.00 0.00 93 1013.4
20260904044626 78 168 0.0 0.0 0.00 0.00 0.00 92 1013.4
20260904044123 78 167 0.0 0.0 0.00 0.00 0.00 92 1013.4
20260904043619 78 167 0.0 0.0 0.00 0.00 0.00 92 1013.5
20260904043115 78 168 0.0 0.0 0.00 0.00 0.00 92 1013.3
20260904042610 78 168 0.0 0.0 0.00 0.00 0.00 92 1013.5
20260904042106 78 170 0.0 0.0 0.00 0.00 0.00 92 1013.5
20260904041601 78 165 0.0 0.0 0.00 0.00 0.00 91 1013.2
20260904041057 79 172 0.0 0.0 0.00 0.00 0.00 92 1013.3
20260904040557 79 168 0.0 0.0 0.00 0.00 0.00 90 1013.2
20260904040054 79 162 0.0 0.0 0.00 0.00 0.00 90 1013.3
20260904035549 79 162 0.0 0.0 0.00 0.00 0.00 90 1013.0
20260904035048 79 164 0.0 0.0 0.00 0.00 0.00 89 1013.2
20260904034543 79 164 0.0 0.0 0.00 0.00 0.00 90 1013.1
20260904034039 79 165 0.0 0.0 0.00 0.00 0.00 90 1013.2
20260904033535 79 165 0.0 0.0 0.00 0.00 0.00 91 1013.1
20260904033032 79 171 0.0 0.0 0.00 0.00 0.00 90 1012.9
20260904032528 79 170 0.0 0.0 0.00 0.00 0.00 91 1013.1
20260904032026 79 168 0.0 0.0 0.00 0.00 0.00 90 1013.2
20260904031521 80 168 0.0 0.0 0.00 0.00 0.00 90 1013.3
20260904031017 80 172 0.0 0.0 0.00 0.00 0.00 90 1013.3
20260904030513 80 172 0.0 0.0 0.00 0.00 0.00 90 1013.1
20260904030008 80 172 0.0 0.0 0.00 0.00 0.00 90 1013.2
20260904025504 80 173 0.0 0.0 0.00 0.00 0.00 91 1013.5
20260904025004 80 171 0.0 0.0 0.00 0.00 0.00 90 1013.5
20260904024459 80 172 0.0 0.0 0.00 0.00 0.00 90 1013.6
20260904023954 80 172 0.0 0.0 0.00 0.00 0.00 90 1013.2
20260904023450 80 172 0.0 0.0 0.00 0.00 0.00 89 1013.4
20260904022950 80 168 0.0 0.0 0.00 0.00 0.00 89 1013.4
20260904022446 80 171 0.0 0.0 0.00 0.00 0.00 90 1013.6
20260904021943 80 172 0.0 0.0 0.00 0.00 0.00 90 1013.5
20260904021438 80 168 0.0 0.0 0.00 0.00 0.00 89 1013.4
20260904020933 80 169 0.0 0.0 0.00 0.00 0.00 88 1013.3
20260904020428 80 169 0.0 0.0 0.00 0.00 0.00 88 1013.6
20260904015926 80 168 0.0 0.0 0.00 0.00 0.00 87 1013.5
20260904015422 81 168 0.0 0.0 0.00 0.00 0.00 87 1013.3
20260904014920 81 169 0.0 0.0 0.00 0.00 0.00 85 1013.5
20260904014416 81 169 0.0 0.0 0.00 0.00 0.00 86 1013.4
20260904013912 81 169 0.0 0.0 0.00 0.00 0.00 86 1013.3
20260904013407 81 167 0.0 0.0 0.00 0.00 0.00 84 1013.3
20260904012858 82 163 0.0 0.0 0.00 0.00 0.00 84 1013.1
20260904012357 82 163 0.0 0.0 0.00 0.00 0.00 82 1013.2
20260904011857 82 163 0.0 0.0 0.00 0.00 0.00 82 1013.1
20260904011352 82 163 0.0 0.0 0.00 0.00 0.00 82 1012.9
20260904010847 82 163 0.0 0.0 0.00 0.00 0.00 82 1012.9
20260904010344 82 163 0.0 0.0 0.00 0.00 0.00 82 1012.9
20260904005838 83 163 0.0 0.0 0.00 0.00 0.00 85 1013.0
20260904005334 83 166 0.0 0.0 0.00 0.00 0.00 83 1013.0
20260904004829 83 163 0.0 0.0 0.00 0.00 0.00 81 1013.0
20260904004326 83 163 0.0 0.0 0.00 0.00 0.00 81 1013.0
20260904003820 84 163 0.0 0.0 0.00 0.00 0.00 80 1012.8
20260904003316 84 163 0.0 0.0 0.00 0.00 0.00 80 1012.4
20260904002812 84 163 0.0 0.0 0.00 0.00 0.00 79 1012.5
20260904002308 84 163 0.0 0.0 0.00 0.00 0.00 78 1012.5
20260904001807 85 160 0.0 0.0 0.00 0.00 0.00 77 1012.3
20260904001302 85 160 0.0 0.0 0.00 0.00 0.00 77 1012.5
20260904000757 85 158 0.0 0.0 0.00 0.00 0.00 77 1012.6
20260904000251 86 160 0.0 0.0 0.00 0.00 0.00 76 1012.5
20260903235751 86 163 0.0 0.0 0.00 0.00 0.00 75 1012.5
20260903235247 86 163 0.0 0.0 0.00 0.00 0.00 75 1012.6
20260903234746 86 163 0.0 0.0 0.00 0.00 0.00 75 1012.4
20260903234243 86 163 0.0 0.0 0.00 0.00 0.00 75 1012.3
20260903233739 86 163 0.0 0.0 0.00 0.00 0.00 75 1012.8
20260903233234 87 162 0.0 0.0 0.00 0.00 0.00 76 1012.5
20260903232733 87 168 0.0 0.0 0.00 0.00 0.00 76 1012.3
20260903232230 87 169 0.0 0.0 0.00 0.00 0.00 75 1012.5
20260903231728 87 163 0.0 0.0 0.00 0.00 0.00 74 1012.3
20260903231224 87 163 0.0 0.0 0.00 0.00 0.00 74 1012.6
20260903230720 87 160 0.0 0.0 0.00 0.00 0.00 74 1012.4
20260903230219 87 163 0.0 0.0 0.00 0.00 0.00 73 1012.4
20260903225716 87 160 0.0 0.0 0.00 0.00 0.00 73 1012.1
20260903225212 88 169 0.0 0.0 0.00 0.00 0.00 76 1012.3
20260903224708 88 168 0.0 0.0 0.00 0.00 0.00 74 1012.4
20260903224204 88 198 1.0 1.0 0.00 0.00 0.00 75 1012.4
20260903223659 88 167 0.0 0.0 0.00 0.00 0.00 73 1012.3
20260903223157 88 171 0.0 0.0 0.00 0.00 0.00 74 1012.4
20260903222658 89 180 0.0 0.0 0.00 0.00 0.00 72 1012.3
20260903222156 89 171 1.0 1.0 0.00 0.00 0.00 71 1012.2
20260903221652 90 218 1.0 1.0 0.00 0.00 0.00 69 1012.4
20260903221150 90 207 1.0 2.0 0.00 0.00 0.00 68 1012.1
20260903220649 90 186 1.0 1.0 0.00 0.00 0.00 68 1012.3
20260903220144 90 217 2.0 2.0 0.00 0.00 0.00 65 1012.2
20260903215643 90 163 0.0 0.0 0.00 0.00 0.00 70 1012.1
20260903215138 91 172 1.0 1.0 0.00 0.00 0.00 68 1012.2
20260903214636 91 235 2.0 2.0 0.00 0.00 0.00 67 1012.1
20260903214132 91 228 2.0 3.0 0.00 0.00 0.00 65 1012.3
20260903213627 92 253 3.0 3.0 0.00 0.00 0.00 62 1012.0
20260903213123 93 160 0.0 1.0 0.00 0.00 0.00 63 1012.0
20260903212618 94 214 2.0 3.0 0.00 0.00 0.00 62 1012.2
20260903212114 95 180 1.0 1.0 0.00 0.00 0.00 62 1012.1
20260903211609 94 189 1.0 1.0 0.00 0.00 0.00 62 1012.3
20260903211106 95 173 0.0 1.0 0.00 0.00 0.00 61 1012.2
20260903210600 94 227 1.0 1.0 0.00 0.00 0.00 60 1012.0
20260903210056 95 257 3.0 3.0 0.00 0.00 0.00 60 1012.3
20260903205555 95 266 2.0 2.0 0.00 0.00 0.00 60 1012.6
20260903205050 94 178 1.0 1.0 0.00 0.00 0.00 62 1012.4
20260903204546 94 161 0.0 1.0 0.00 0.00 0.00 63 1012.3
20260903204041 95 292 1.0 2.0 0.00 0.00 0.00 61 1012.2
20260903203536 95 185 0.0 1.0 0.00 0.00 0.00 60 1012.3
20260903203036 95 224 0.0 0.0 0.00 0.00 0.00 60 1012.3
20260903202532 94 272 3.0 3.0 0.00 0.00 0.00 57 1012.5
20260903202027 95 226 2.0 2.0 0.00 0.00 0.00 58 1012.6
20260903201522 96 245 3.0 3.0 0.00 0.00 0.00 58 1012.8
20260903201020 96 184 0.0 0.0 0.00 0.00 0.00 59 1012.8
20260903200516 95 250 2.0 2.0 0.00 0.00 0.00 60 1013.0
20260903200011 95 243 3.0 3.0 0.00 0.00 0.00 58 1013.2
20260903195507 95 213 0.0 1.0 0.00 0.00 0.00 61 1012.9
20260903195002 94 237 0.0 1.0 0.00 0.00 0.00 63 1013.1
20260903194457 94 238 3.0 3.0 0.00 0.00 0.00 58 1013.2
20260903193953 94 222 2.0 2.0 0.00 0.00 0.00 60 1013.1
20260903193449 94 193 1.0 1.0 0.00 0.00 0.00 63 1013.1
20260903192943 93 195 0.0 0.0 0.00 0.00 0.00 64 1013.2
20260903192441 93 193 0.0 1.0 0.00 0.00 0.00 63 1013.2
20260903191935 94 237 2.0 2.0 0.00 0.00 0.00 62 1013.3
20260903191432 93 222 1.0 2.0 0.00 0.00 0.00 62 1013.4
20260903190931 93 236 3.0 3.0 0.00 0.00 0.00 62 1013.6
20260903190425 93 198 1.0 1.0 0.00 0.00 0.00 64 1013.6
20260903185919 93 203 0.0 1.0 0.00 0.00 0.00 63 1013.5
20260903185415 93 272 3.0 3.0 0.00 0.00 0.00 61 1013.5
20260903184910 93 246 4.0 5.0 0.00 0.00 0.00 63 1013.7
20260903184407 93 172 0.0 1.0 0.00 0.00 0.00 62 1013.6
20260903183906 93 144 1.0 2.0 0.00 0.00 0.00 62 1013.6
20260903183401 92 155 1.0 1.0 0.00 0.00 0.00 65 1013.8
20260903182855 92 242 2.0 2.0 0.00 0.00 0.00 66 1013.8
20260903182354 93 195 2.0 2.0 0.00 0.00 0.00 64 1013.7
20260903181849 93 183 1.0 1.0 0.00 0.00 0.00 63 1013.7
20260903181344 93 230 3.0 3.0 0.00 0.00 0.00 63 1013.7
20260903180843 94 188 2.0 2.0 0.00 0.00 0.00 61 1013.8
20260903180343 93 209 1.0 2.0 0.00 0.00 0.00 62 1013.9
20260903175843 92 192 0.0 1.0 0.00 0.00 0.00 64 1013.9
20260903175337 93 241 3.0 3.0 0.00 0.00 0.00 61 1013.6
20260903174832 92 223 3.0 3.0 0.00 0.00 0.00 64 1013.6
20260903174327 92 248 4.0 5.0 0.00 0.00 0.00 63 1014.0
20260903173826 93 262 2.0 3.0 0.00 0.00 0.00 63 1013.8
20260903173322 92 241 3.0 3.0 0.00 0.00 0.00 61 1013.9
20260903172818 92 267 3.0 3.0 0.00 0.00 0.00 62 1013.9
20260903172312 93 266 3.0 3.0 0.00 0.00 0.00 60 1014.2
20260903171808 93 262 2.0 2.0 0.00 0.00 0.00 61 1014.0
20260903171303 93 213 3.0 3.0 0.00 0.00 0.00 61 1014.1
20260903170802 93 237 4.0 5.0 0.00 0.00 0.00 57 1014.0
20260903170257 94 223 3.0 3.0 0.00 0.00 0.00 59 1014.0
20260903165756 94 212 1.0 1.0 0.00 0.00 0.00 64 1014.2
20260903165251 94 166 1.0 1.0 0.00 0.00 0.00 68 1014.1
20260903164745 93 170 1.0 1.0 0.00 0.00 0.00 65 1014.4
20260903164241 93 246 2.0 2.0 0.00 0.00 0.00 63 1014.3
20260903163740 93 181 0.0 1.0 0.00 0.00 0.00 65 1014.5
20260903163237 92 193 3.0 3.0 0.00 0.00 0.00 64 1014.5
20260903162732 91 233 1.0 2.0 0.00 0.00 0.00 68 1014.5
20260903162228 91 275 4.0 5.0 0.00 0.00 0.00 65 1014.5
20260903161719 92 238 3.0 3.0 0.00 0.00 0.00 66 1014.6
20260903161214 92 196 1.0 1.0 0.00 0.00 0.00 66 1014.8
20260903160710 91 224 2.0 2.0 0.00 0.00 0.00 67 1014.6
20260903160208 90 240 2.0 2.0 0.00 0.00 0.00 68 1014.6
20260903155707 90 225 2.0 2.0 0.00 0.00 0.00 68 1014.6
20260903155202 90 245 2.0 2.0 0.00 0.00 0.00 68 1014.6
20260903154658 90 213 2.0 3.0 0.00 0.00 0.00 68 1014.5
20260903154154 90 253 3.0 3.0 0.00 0.00 0.00 68 1014.5
20260903153649 90 224 1.0 2.0 0.00 0.00 0.00 67 1014.4
20260903153145 89 231 1.0 1.0 0.00 0.00 0.00 71 1014.8
20260903152641 89 227 1.0 2.0 0.00 0.00 0.00 72 1014.5
20260903152137 89 193 1.0 2.0 0.00 0.00 0.00 69 1014.6
20260903151637 88 226 2.0 2.0 0.00 0.00 0.00 70 1014.6
20260903151131 89 196 1.0 2.0 0.00 0.00 0.00 73 1014.6
20260903150631 89 221 1.0 2.0 0.00 0.00 0.00 70 1014.7
20260903150127 88 176 1.0 1.0 0.00 0.00 0.00 73 1014.5
20260903145626 88 198 1.0 2.0 0.00 0.00 0.00 71 1014.7
20260903145121 87 188 1.0 1.0 0.00 0.00 0.00 72 1014.5
20260903144620 87 223 2.0 2.0 0.00 0.00 0.00 72 1014.6
20260903144116 86 169 0.0 1.0 0.00 0.00 0.00 74 1014.6
20260903143612 86 191 1.0 1.0 0.00 0.00 0.00 74 1014.3
20260903143108 85 226 1.0 2.0 0.00 0.00 0.00 74 1014.5
20260903142603 85 220 1.0 2.0 0.00 0.00 0.00 77 1014.6
20260903142100 84 169 0.0 1.0 0.00 0.00 0.00 77 1014.4
20260903141555 84 164 0.0 1.0 0.00 0.00 0.00 78 1014.6
20260903141050 83 194 1.0 1.0 0.00 0.00 0.00 79 1014.4
20260903140546 83 243 2.0 2.0 0.00 0.00 0.00 78 1014.5
20260903140041 82 198 1.0 1.0 0.00 0.00 0.00 80 1014.5
20260903135536 82 166 0.0 0.0 0.00 0.00 0.00 84 1014.8
20260903135031 82 205 1.0 1.0 0.00 0.00 0.00 83 1014.7
20260903134531 81 219 2.0 2.0 0.00 0.00 0.00 82 1014.8
20260903134027 81 188 1.0 2.0 0.00 0.00 0.00 81 1014.9
20260903133524 80 240 2.0 3.0 0.00 0.00 0.00 84 1014.7
20260903133019 80 225 1.0 2.0 0.00 0.00 0.00 84 1014.8
20260903132514 80 225 1.0 1.0 0.00 0.00 0.00 86 1014.6
20260903132009 79 225 2.0 2.0 0.00 0.00 0.00 84 1014.8
20260903131504 79 199 1.0 1.0 0.00 0.00 0.00 87 1014.9
20260903131003 78 180 0.0 0.0 0.00 0.00 0.00 86 1014.9
20260903130458 78 192 0.0 0.0 0.00 0.00 0.00 87 1015.2
20260903125957 78 177 0.0 0.0 0.00 0.00 0.00 88 1015.2
20260903125456 78 200 0.0 0.0 0.00 0.00 0.00 90 1014.9